Time,TemperatureF,DewpointF,PressureIn,WindDirection,WindDirectionDegrees,WindSpeedMPH,WindSpeedGustMPH,Humidity,HourlyPrecipIn,Conditions,Clouds,dailyrainin,SoftwareType,DateUTC
2013-03-31 00:00:00,56.0,53.4,30.16,West,268,0.0,0.0,91,0.00,,---,0.00,VWS V14.00,2013-03-31 07:00:00,
2013-03-31 00:01:00,56.0,53.4,30.16,West,268,0.0,0.0,91,0.00,,---,0.00,VWS V14.00,2013-03-31 07:01:00,
2013-03-31 00:30:00,55.8,53.2,30.16,West,268,0.0,0.0,91,0.00,,---,0.00,VWS V14.00,2013-03-31 07:30:00,
2013-03-31 00:31:00,55.8,53.2,30.16,West,268,0.0,0.0,91,0.00,,---,0.00,VWS V14.00,2013-03-31 07:31:00,
2013-03-31 01:00:00,55.0,52.1,30.16,West,268,0.0,0.0,90,0.00,,---,0.00,VWS V14.00,2013-03-31 08:00:00,
2013-03-31 01:01:00,55.0,52.1,30.16,West,268,0.0,0.0,90,0.00,,---,0.00,VWS V14.00,2013-03-31 08:01:00,
2013-03-31 01:30:00,55.3,52.7,30.17,West,268,0.0,0.0,91,0.00,,---,0.00,VWS V14.00,2013-03-31 08:30:00,
2013-03-31 02:00:00,56.2,53.6,30.16,West,268,0.0,0.0,91,0.00,,---,0.00,VWS V14.00,2013-03-31 09:00:00,
2013-03-31 02:01:00,56.2,53.6,30.16,West,268,0.0,0.0,91,0.00,,---,0.00,VWS V14.00,2013-03-31 09:01:00,
2013-03-31 02:30:00,56.7,53.8,30.15,West,268,0.0,0.0,90,0.00,,---,0.00,VWS V14.00,2013-03-31 09:30:00,
2013-03-31 03:00:00,55.6,52.4,30.14,WNW,302,0.0,1.0,89,0.00,,---,0.00,VWS V14.00,2013-03-31 10:00:00,
2013-03-31 03:01:00,55.6,52.4,30.14,WNW,302,0.0,1.0,89,0.00,,---,0.00,VWS V14.00,2013-03-31 10:01:00,
2013-03-31 03:30:00,54.1,51.2,30.14,NNW,338,0.0,1.0,90,0.00,,---,0.00,VWS V14.00,2013-03-31 10:30:00,
2013-03-31 03:31:00,54.1,51.2,30.14,NNW,338,0.0,1.0,90,0.00,,---,0.00,VWS V14.00,2013-03-31 10:31:00,
2013-03-31 04:00:00,54.3,51.7,30.14,NNW,339,0.0,1.0,91,0.00,,---,0.00,VWS V14.00,2013-03-31 11:00:00,
2013-03-31 04:01:00,54.3,51.7,30.14,NNW,339,0.0,1.0,91,0.00,,---,0.00,VWS V14.00,2013-03-31 11:01:00,
2013-03-31 04:30:00,54.7,52.1,30.14,NNW,341,0.0,1.0,91,0.00,,---,0.00,VWS V14.00,2013-03-31 11:30:00,
2013-03-31 05:00:00,54.0,51.4,30.14,North,351,0.0,1.0,91,0.00,,---,0.00,VWS V14.00,2013-03-31 12:00:00,
2013-03-31 05:30:00,53.7,51.1,30.14,North,5,0.0,1.0,91,0.00,,---,0.00,VWS V14.00,2013-03-31 12:30:00,
2013-03-31 05:31:00,53.7,51.1,30.14,North,5,0.0,1.0,91,0.00,,---,0.00,VWS V14.00,2013-03-31 12:31:00,
2013-03-31 06:00:00,54.3,51.7,30.15,North,5,0.0,1.0,91,0.00,,---,0.00,VWS V14.00,2013-03-31 13:00:00,
2013-03-31 06:01:00,54.3,51.7,30.15,North,5,0.0,1.0,91,0.00,,---,0.00,VWS V14.00,2013-03-31 13:01:00,
2013-03-31 06:30:00,55.1,52.2,30.15,North,5,0.0,0.0,90,0.00,,---,0.00,VWS V14.00,2013-03-31 13:30:00,
2013-03-31 06:31:00,55.1,52.2,30.15,North,5,0.0,0.0,90,0.00,,---,0.00,VWS V14.00,2013-03-31 13:31:00,
2013-03-31 07:00:00,55.2,51.7,30.16,North,5,0.0,1.0,88,0.00,,---,0.00,VWS V14.00,2013-03-31 14:00:00,
2013-03-31 07:01:00,55.2,51.7,30.16,North,5,0.0,1.0,88,0.00,,---,0.00,VWS V14.00,2013-03-31 14:01:00,
2013-03-31 07:30:00,55.1,51.0,30.16,NNE,33,0.0,1.0,86,0.00,,---,0.00,VWS V14.00,2013-03-31 14:30:00,
2013-03-31 07:31:00,55.1,51.0,30.16,NNE,33,0.0,1.0,86,0.00,,---,0.00,VWS V14.00,2013-03-31 14:31:00,
2013-03-31 08:00:00,56.1,51.3,30.16,NNE,33,0.0,2.0,84,0.00,,---,0.00,VWS V14.00,2013-03-31 15:00:00,
2013-03-31 08:30:00,58.1,52.6,30.16,NNE,33,0.0,1.0,82,0.00,,---,0.00,VWS V14.00,2013-03-31 15:30:00,
2013-03-31 08:31:00,58.1,52.6,30.16,NNE,33,0.0,1.0,82,0.00,,---,0.00,VWS V14.00,2013-03-31 15:31:00,
2013-03-31 09:00:00,62.2,54.5,30.15,ENE,74,0.0,3.0,76,0.00,,---,0.00,VWS V14.00,2013-03-31 16:00:00,
2013-03-31 09:01:00,62.2,54.5,30.15,ENE,74,0.0,3.0,76,0.00,,---,0.00,VWS V14.00,2013-03-31 16:01:00,
2013-03-31 09:30:00,59.6,54.4,30.17,South,175,4.0,5.0,83,0.00,,---,0.00,VWS V14.00,2013-03-31 16:30:00,
2013-03-31 09:31:00,59.6,54.4,30.17,South,175,4.0,5.0,83,0.00,,---,0.00,VWS V14.00,2013-03-31 16:31:00,
2013-03-31 10:00:00,60.9,55.7,30.17,SSE,161,4.0,6.0,83,0.00,,---,0.00,VWS V14.00,2013-03-31 17:00:00,
2013-03-31 10:30:00,60.9,55.4,30.17,SSE,155,4.0,7.0,82,0.00,,---,0.00,VWS V14.00,2013-03-31 17:30:00,
2013-03-31 10:31:00,60.9,55.4,30.17,SSE,155,4.0,7.0,82,0.00,,---,0.00,VWS V14.00,2013-03-31 17:31:00,
2013-03-31 11:00:00,61.5,56.0,30.17,SE,142,2.0,5.0,82,0.00,,---,0.00,VWS V14.00,2013-03-31 18:00:00,
2013-03-31 11:01:00,61.5,56.0,30.17,SE,142,2.0,5.0,82,0.00,,---,0.00,VWS V14.00,2013-03-31 18:01:00,
2013-03-31 11:30:00,62.0,56.5,30.17,SE,144,3.0,5.0,82,0.00,,---,0.00,VWS V14.00,2013-03-31 18:30:00,
2013-03-31 11:31:00,62.0,56.5,30.17,SE,144,3.0,5.0,82,0.00,,---,0.00,VWS V14.00,2013-03-31 18:31:00,
2013-03-31 12:00:00,63.3,57.7,30.17,South,178,3.0,5.0,82,0.00,,---,0.00,VWS V14.00,2013-03-31 19:00:00,
2013-03-31 12:01:00,63.3,57.7,30.17,South,178,3.0,5.0,82,0.00,,---,0.00,VWS V14.00,2013-03-31 19:01:00,
2013-03-31 12:30:00,62.5,56.9,30.16,South,184,3.0,5.0,82,0.00,,---,0.00,VWS V14.00,2013-03-31 19:30:00,
2013-03-31 12:31:00,62.5,56.9,30.16,South,184,3.0,5.0,82,0.00,,---,0.00,VWS V14.00,2013-03-31 19:31:00,
2013-03-31 13:00:00,61.6,57.0,30.16,South,182,2.0,5.0,85,0.00,,---,0.00,VWS V14.00,2013-03-31 20:00:00,
2013-03-31 13:01:00,61.6,57.0,30.16,South,182,2.0,5.0,85,0.00,,---,0.00,VWS V14.00,2013-03-31 20:01:00,
2013-03-31 13:30:00,62.4,57.5,30.14,South,180,2.0,5.0,84,0.00,,---,0.00,VWS V14.00,2013-03-31 20:30:00,
2013-03-31 13:31:00,62.4,57.5,30.14,South,180,2.0,5.0,84,0.00,,---,0.00,VWS V14.00,2013-03-31 20:31:00,
2013-03-31 14:00:00,63.8,58.2,30.14,South,177,4.0,5.0,82,0.00,,---,0.00,VWS V14.00,2013-03-31 21:00:00,
2013-03-31 14:01:00,63.8,58.2,30.14,South,177,4.0,5.0,82,0.00,,---,0.00,VWS V14.00,2013-03-31 21:01:00,
2013-03-31 14:30:00,63.5,57.9,30.13,South,174,3.0,6.0,82,0.00,,---,0.00,VWS V14.00,2013-03-31 21:30:00,
2013-03-31 14:31:00,63.5,57.9,30.13,South,174,3.0,6.0,82,0.00,,---,0.00,VWS V14.00,2013-03-31 21:31:00,
2013-03-31 15:00:00,63.2,58.0,30.12,South,170,4.0,6.0,83,0.00,,---,0.00,VWS V14.00,2013-03-31 22:00:00,
2013-03-31 15:01:00,63.2,58.0,30.12,South,170,4.0,6.0,83,0.00,,---,0.00,VWS V14.00,2013-03-31 22:01:00,
2013-03-31 15:30:00,61.4,57.2,30.11,South,169,4.0,7.0,86,0.00,,---,0.00,VWS V14.00,2013-03-31 22:30:00,
2013-03-31 15:31:00,61.4,57.2,30.11,South,169,4.0,7.0,86,0.00,,---,0.00,VWS V14.00,2013-03-31 22:31:00,
2013-03-31 16:00:00,61.6,57.7,30.11,South,186,6.0,8.0,87,0.00,,---,0.00,VWS V14.00,2013-03-31 23:00:00,
2013-03-31 16:01:00,61.6,57.7,30.11,South,186,6.0,8.0,87,0.00,,---,0.00,VWS V14.00,2013-03-31 23:01:00,
2013-03-31 16:30:00,61.5,57.9,30.11,South,179,4.0,8.0,88,0.00,,---,0.00,VWS V14.00,2013-03-31 23:30:00,
2013-03-31 16:31:00,61.5,57.9,30.11,South,179,4.0,8.0,88,0.00,,---,0.00,VWS V14.00,2013-03-31 23:31:00,
2013-03-31 17:00:00,61.6,58.0,30.11,South,175,3.0,6.0,88,0.00,,---,0.00,VWS V14.00,2013-04-01 00:00:00,
2013-03-31 17:30:00,62.3,58.4,30.10,South,175,2.0,4.0,87,0.00,,---,0.00,VWS V14.00,2013-04-01 00:30:00,
2013-03-31 17:31:00,62.3,58.4,30.10,South,175,2.0,4.0,87,0.00,,---,0.00,VWS V14.00,2013-04-01 00:31:00,
2013-03-31 18:00:00,61.1,57.8,30.10,South,175,2.0,4.0,89,0.00,,---,0.00,VWS V14.00,2013-04-01 01:00:00,
2013-03-31 18:01:00,61.1,57.8,30.10,South,175,2.0,4.0,89,0.00,,---,0.00,VWS V14.00,2013-04-01 01:01:00,
2013-03-31 18:30:00,61.3,58.0,30.11,ESE,121,0.0,3.0,89,0.00,,---,0.00,VWS V14.00,2013-04-01 01:30:00,
2013-03-31 18:31:00,61.3,58.0,30.11,ESE,121,0.0,3.0,89,0.00,,---,0.00,VWS V14.00,2013-04-01 01:31:00,
2013-03-31 19:00:00,60.3,57.4,30.11,West,262,6.0,7.0,90,0.00,,---,0.00,VWS V14.00,2013-04-01 02:00:00,
2013-03-31 19:30:00,59.6,57.0,30.11,West,273,3.0,8.0,91,0.00,,---,0.00,VWS V14.00,2013-04-01 02:30:00,
2013-03-31 19:31:00,59.6,57.0,30.11,West,273,3.0,8.0,91,0.00,,---,0.00,VWS V14.00,2013-04-01 02:31:00,
2013-03-31 20:00:00,59.4,56.8,30.12,West,268,5.0,6.0,91,0.00,,---,0.00,VWS V14.00,2013-04-01 03:00:00,
2013-03-31 20:01:00,59.4,56.8,30.12,West,268,5.0,6.0,91,0.00,,---,0.00,VWS V14.00,2013-04-01 03:01:00,
2013-03-31 20:30:00,59.4,56.5,30.13,West,269,4.0,8.0,90,0.00,,---,0.00,VWS V14.00,2013-04-01 03:30:00,
2013-03-31 20:31:00,59.4,56.5,30.13,West,269,4.0,8.0,90,0.00,,---,0.00,VWS V14.00,2013-04-01 03:31:00,
2013-03-31 21:00:00,59.3,56.1,30.13,West,266,6.0,11.0,89,0.00,,---,0.00,VWS V14.00,2013-04-01 04:00:00,
2013-03-31 21:01:00,59.3,56.1,30.13,West,266,6.0,11.0,89,0.00,,---,0.00,VWS V14.00,2013-04-01 04:01:00,
2013-03-31 21:30:00,58.6,55.1,30.15,West,274,7.0,12.0,88,0.00,,---,0.00,VWS V14.00,2013-04-01 04:30:00,
2013-03-31 21:31:00,58.6,55.1,30.15,West,274,7.0,12.0,88,0.00,,---,0.00,VWS V14.00,2013-04-01 04:31:00,
2013-03-31 22:00:00,58.6,55.4,30.16,West,281,7.0,10.0,89,0.00,,---,0.00,VWS V14.00,2013-04-01 05:00:00,
2013-03-31 22:01:00,58.6,55.4,30.16,West,281,7.0,10.0,89,0.00,,---,0.00,VWS V14.00,2013-04-01 05:01:00,
2013-03-31 22:30:00,57.8,54.6,30.16,West,279,5.0,11.0,89,0.00,,---,0.00,VWS V14.00,2013-04-01 05:30:00,
2013-03-31 22:31:00,57.8,54.6,30.16,West,279,5.0,11.0,89,0.00,,---,0.00,VWS V14.00,2013-04-01 05:31:00,
2013-03-31 23:00:00,57.7,54.8,30.16,West,269,6.0,11.0,90,0.00,,---,0.00,VWS V14.00,2013-04-01 06:00:00,
2013-03-31 23:01:00,57.7,54.8,30.16,West,269,6.0,11.0,90,0.00,,---,0.00,VWS V14.00,2013-04-01 06:01:00,
2013-03-31 23:30:00,57.1,54.2,30.16,West,265,7.0,11.0,90,0.00,,---,0.00,VWS V14.00,2013-04-01 06:30:00,
2013-03-31 23:31:00,57.1,54.2,30.16,West,265,7.0,11.0,90,0.00,,---,0.00,VWS V14.00,2013-04-01 06:31:00,